COSMOS 886 DEB, 9955

Orbit data source: Space-Track

COSMOS 886 DEB, 9955 is space debris in LEO originally from a launch on Mon, 27 Dec 1976 UTC launched from the Tyuratam Missile And Space Complex (TTMTR). Debris objects in space refer to the collection of defunct objects orbiting the Earth. Examples of debris include non-operational satellites, rocket bodies, and fragments generated from explosions, collisions, or faulty payload assembly.

Loading next visibility...
Identifier
9955, 1976-126AV
Orbit
LEO
Country
Flag of CISCIS
Related business
Manufacturer
Unknown
Mission
Spacecraft
Bus & Motor
Unknown
Mass
Unknown
Launch date (UTC)
1976-12-27 (49 years ago)
Launch vehicle
Unknown
Launch site
Tyuratam Missile And Space Complex (TTMTR)
Object type
Payload
Rocket body
Debris
Shape & HBR
Unknown shape, 0.1 m
Radar Cross Section
Medium (>0.1 m² and <1 m²)

Expand to show TLE details & history
Last TLE update: 19 hours ago

TLE from 19 hours ago
0 COSMOS 886 DEB
1 09955U 76126AV  26175.08415742  .00000005  00000-0  40580-4 0  9998
2 09955  65.8451  79.5528 1063047 164.5775 199.0485 12.64050604990104
Epoch: 2026-06-24T02:01Z
TLE epoch observation values (Epoch: 2026-06-24T02:01:11.201Z)
Latitude
0.00001°
Longitude
137.00968°
Altitude
2,198.601 km
Speed
6.463 km/s
True Right ascension
05h 18m 12s
True Declination
0° 00' 00"
Sunlit
Object was in daylight at epoch
Visualization orbit readout
Latitude
Unknown
Longitude
Unknown
Altitude
Unknown
Speed
Unknown
Apparent Right ascension
Unknown
Apparent Declination
Unknown
Sunlit
N/A
Visualization observer readout
Local Sidereal Time
08:04:25
Azimuth
Unknown
Elevation
Unknown
Doppler factor
Unknown
Orbital elements
Apogee altitude
2,232.21 km
Perigee altitude
577.476 km
Semi-major axis
7,782.98 km
Eccentricity
0.1063
Inclination
65.8451°
RAAN
79.5528°
Arg. of periapsis
164.5775°
True anomaly
195.52027°
Mean anomaly
199.0485°
Eccentric anomaly
197.24303°
Mean motion
3.161 °/min
Orbital period
113.89 mins
BSTAR
0.00004058
Loading maneuver chart data...
Computing Atmospheric mass density...

Documentation

Showing up to 5 results
|